| time (UTC) | temp F | wind direction | speed MPH | gust MPH | rain 1hr in | rain 24hr in | rain mn in | humidity % | barometer mb |
| 20260502211515 | 50 | 265 | 2.0 | 5.0 | 0.00 | 0.00 | 0.00 | 38 | 1016.3 |
| 20260502210536 | 49 | 265 | 3.0 | 5.0 | 0.00 | 0.00 | 0.00 | 40 | 1016.5 |
| 20260502205516 | 49 | 319 | 4.0 | 6.0 | 0.00 | 0.00 | 0.00 | 41 | 1016.6 |
| 20260502204516 | 49 | 170 | 4.0 | 6.0 | 0.00 | 0.00 | 0.00 | 40 | 1016.6 |
| 20260502203516 | 49 | 7 | 4.0 | 8.0 | 0.00 | 0.00 | 0.00 | 46 | 1016.7 |
| 20260502202516 | 49 | 54 | 2.0 | 5.0 | 0.00 | 0.00 | 0.00 | 44 | 1016.8 |
| 20260502201536 | 49 | 220 | 3.0 | 4.0 | 0.00 | 0.00 | 0.00 | 43 | 1016.9 |
| 20260502200516 | 49 | 267 | 3.0 | 5.0 | 0.00 | 0.00 | 0.00 | 45 | 1017.1 |
| 20260502195517 | 48 | 345 | 4.0 | 7.0 | 0.00 | 0.00 | 0.00 | 43 | 1017.3 |
| 20260502194537 | 48 | 185 | 2.0 | 3.0 | 0.00 | 0.00 | 0.00 | 45 | 1017.5 |
| 20260502193537 | 48 | 259 | 4.0 | 7.0 | 0.00 | 0.00 | 0.00 | 47 | 1017.5 |
| 20260502192537 | 47 | 29 | 3.0 | 5.0 | 0.00 | 0.00 | 0.00 | 48 | 1017.5 |
| 20260502191517 | 47 | 207 | 4.0 | 8.0 | 0.00 | 0.00 | 0.00 | 51 | 1017.5 |
| 20260502190517 | 47 | 324 | 6.0 | 11.0 | 0.00 | 0.00 | 0.00 | 49 | 1017.6 |
| 20260502185518 | 48 | 11 | 5.0 | 9.0 | 0.00 | 0.00 | 0.00 | 50 | 1017.7 |
| 20260502184538 | 47 | 16 | 3.0 | 7.0 | 0.00 | 0.00 | 0.00 | 51 | 1017.9 |
| 20260502183518 | 47 | 194 | 4.0 | 7.0 | 0.00 | 0.00 | 0.00 | 49 | 1018.0 |
| 20260502182515 | 47 | 255 | 3.0 | 6.0 | 0.00 | 0.00 | 0.00 | 49 | 1018.0 |
| 20260502181515 | 46 | 214 | 4.0 | 6.0 | 0.00 | 0.00 | 0.00 | 49 | 1018.1 |
| 20260502180515 | 47 | 217 | 4.0 | 9.0 | 0.00 | 0.00 | 0.00 | 48 | 1018.1 |
| 20260502163517 | 45 | 16 | 5.0 | 8.0 | 0.00 | 0.00 | 0.00 | 55 | 1018.5 |
| 20260502162537 | 45 | 14 | 4.0 | 9.0 | 0.00 | 0.00 | 0.00 | 52 | 1018.7 |
| 20260502161517 | 45 | 352 | 5.0 | 10.0 | 0.00 | 0.00 | 0.00 | 52 | 1018.8 |
| 20260502160517 | 45 | 205 | 4.0 | 7.0 | 0.00 | 0.00 | 0.00 | 53 | 1018.9 |
| 20260502151518 | 43 | 358 | 4.0 | 7.0 | 0.00 | 0.00 | 0.00 | 58 | 1018.8 |
| 20260502150518 | 43 | 201 | 3.0 | 3.0 | 0.00 | 0.00 | 0.00 | 57 | 1018.8 |
| 20260502130546 | 40 | 297 | 1.0 | 1.0 | 0.00 | 0.00 | 0.00 | 76 | 1019.3 |
| 20260502123517 | 38 | 0 | 3.0 | 4.0 | 0.00 | 0.00 | 0.00 | 83 | 1019.3 |
| 20260502122517 | 37 | 356 | 4.0 | 5.0 | 0.00 | 0.00 | 0.00 | 85 | 1019.3 |
| 20260502121526 | 37 | 344 | 3.0 | 4.0 | 0.00 | 0.00 | 0.00 | 87 | 1019.3 |
| 20260502120526 | 36 | 352 | 2.0 | 3.0 | 0.00 | 0.00 | 0.00 | 88 | 1019.3 |
| 20260502115527 | 35 | 9 | 2.0 | 2.0 | 0.00 | 0.00 | 0.00 | 90 | 1019.2 |
| 20260502114607 | 34 | 347 | 2.0 | 2.0 | 0.00 | 0.00 | 0.00 | 93 | 1019.2 |
| 20260502113546 | 33 | 0.0 | 0.0 | 0.00 | 0.00 | 0.00 | 93 | 1019.1 | |
| 20260502112526 | 32 | 0.0 | 0.0 | 0.00 | 0.00 | 0.00 | 92 | 1019.1 | |
| 20260502111527 | 32 | 0.0 | 0.0 | 0.00 | 0.00 | 0.00 | 95 | 1019.0 | |
| 20260502110527 | 32 | 0.0 | 0.0 | 0.00 | 0.00 | 0.00 | 97 | 1019.1 | |
| 20260502105527 | 32 | 275 | 0.0 | 1.0 | 0.00 | 0.00 | 0.00 | 95 | 1019.0 |
| 20260502104527 | 33 | 259 | 0.0 | 1.0 | 0.00 | 0.00 | 0.00 | 95 | 1018.9 |
| 20260502103547 | 32 | 0.0 | 0.0 | 0.00 | 0.00 | 0.00 | 93 | 1018.9 | |
| 20260502102527 | 33 | 301 | 1.0 | 1.0 | 0.00 | 0.00 | 0.00 | 94 | 1019.0 |
| 20260502101548 | 33 | 242 | 0.0 | 1.0 | 0.00 | 0.00 | 0.00 | 93 | 1018.8 |
| 20260502100528 | 33 | 0.0 | 0.0 | 0.00 | 0.00 | 0.00 | 91 | 1018.8 | |
| 20260502091528 | 34 | 0.0 | 0.0 | 0.00 | 0.00 | 0.00 | 84 | 1018.6 | |
| 20260502090529 | 35 | 0.0 | 0.0 | 0.00 | 0.00 | 0.00 | 83 | 1018.6 | |
| 20260502071536 | 38 | 0.0 | 0.0 | 0.00 | 0.00 | 0.00 | 76 | 1018.2 | |
| 20260502070536 | 38 | 314 | 1.0 | 2.0 | 0.00 | 0.00 | 0.00 | 75 | 1018.3 |
| 20260502065516 | 38 | 329 | 1.0 | 3.0 | 0.00 | 0.00 | 0.00 | 75 | 1018.3 |
| 20260502064516 | 38 | 313 | 0.0 | 1.0 | 0.00 | 0.00 | 0.00 | 75 | 1018.4 |
| 20260502063516 | 38 | 291 | 0.0 | 1.0 | 0.00 | 0.00 | 0.00 | 73 | 1018.4 |
| 20260502062516 | 38 | 330 | 1.0 | 2.0 | 0.00 | 0.00 | 0.00 | 71 | 1018.4 |
| 20260502061536 | 38 | 0.0 | 0.0 | 0.00 | 0.00 | 0.00 | 73 | 1018.5 | |
| 20260502060517 | 38 | 0.0 | 0.0 | 0.00 | 0.00 | 0.00 | 72 | 1018.5 | |
| 20260502055517 | 38 | 309 | 0.0 | 2.0 | 0.00 | 0.00 | 0.00 | 71 | 1018.5 |
| 20260502054557 | 38 | 309 | 1.0 | 2.0 | 0.00 | 0.00 | 0.00 | 73 | 1018.5 |
| 20260502053517 | 38 | 0.0 | 0.0 | 0.00 | 0.00 | 0.00 | 74 | 1018.5 | |
| 20260502052517 | 38 | 240 | 1.0 | 2.0 | 0.00 | 0.00 | 0.00 | 74 | 1018.5 |
| 20260502051517 | 38 | 313 | 1.0 | 2.0 | 0.00 | 0.00 | 0.00 | 74 | 1018.4 |
| 20260502050537 | 39 | 317 | 1.0 | 2.0 | 0.00 | 0.00 | 0.00 | 71 | 1018.5 |
| 20260502045518 | 39 | 245 | 0.0 | 2.0 | 0.00 | 0.00 | 0.00 | 71 | 1018.4 |
| 20260502044518 | 39 | 16 | 0.0 | 1.0 | 0.00 | 0.00 | 0.00 | 70 | 1018.2 |
| 20260502043515 | 39 | 351 | 1.0 | 2.0 | 0.00 | 0.00 | 0.00 | 72 | 1018.3 |
| 20260502042515 | 39 | 304 | 1.0 | 2.0 | 0.00 | 0.00 | 0.00 | 70 | 1018.3 |
| 20260502041515 | 39 | 358 | 3.0 | 6.0 | 0.00 | 0.00 | 0.00 | 70 | 1018.2 |
| 20260502040516 | 39 | 336 | 2.0 | 3.0 | 0.00 | 0.00 | 0.00 | 68 | 1018.2 |
| 20260502035515 | 39 | 310 | 1.0 | 2.0 | 0.00 | 0.00 | 0.00 | 70 | 1018.3 |
| 20260502034516 | 39 | 7 | 4.0 | 5.0 | 0.00 | 0.00 | 0.00 | 67 | 1018.2 |
| 20260502033516 | 39 | 324 | 3.0 | 4.0 | 0.00 | 0.00 | 0.00 | 69 | 1018.2 |
| 20260502032516 | 39 | 339 | 2.0 | 4.0 | 0.00 | 0.00 | 0.00 | 66 | 1018.1 |
| 20260502031517 | 39 | 333 | 3.0 | 4.0 | 0.00 | 0.00 | 0.00 | 66 | 1018.2 |
| 20260502030517 | 39 | 35 | 3.0 | 4.0 | 0.00 | 0.00 | 0.00 | 67 | 1018.1 |
| 20260502025517 | 40 | 308 | 2.0 | 4.0 | 0.00 | 0.00 | 0.00 | 67 | 1018.1 |
| 20260502024517 | 39 | 12 | 1.0 | 4.0 | 0.00 | 0.00 | 0.00 | 68 | 1018.0 |
| 20260502023537 | 39 | 9 | 5.0 | 7.0 | 0.00 | 0.00 | 0.00 | 65 | 1018.0 |
| 20260502022517 | 40 | 350 | 3.0 | 5.0 | 0.00 | 0.00 | 0.00 | 66 | 1017.9 |
| 20260502021517 | 40 | 0 | 3.0 | 4.0 | 0.00 | 0.00 | 0.00 | 64 | 1017.8 |
| 20260502020518 | 40 | 340 | 2.0 | 6.0 | 0.00 | 0.00 | 0.00 | 62 | 1017.7 |
| 20260502015518 | 40 | 357 | 3.0 | 4.0 | 0.00 | 0.00 | 0.00 | 64 | 1017.6 |
| 20260502014518 | 41 | 18 | 2.0 | 4.0 | 0.00 | 0.00 | 0.00 | 63 | 1017.5 |
| 20260502013535 | 41 | 350 | 3.0 | 5.0 | 0.00 | 0.00 | 0.00 | 62 | 1017.4 |
| 20260502012515 | 41 | 333 | 5.0 | 6.0 | 0.00 | 0.00 | 0.00 | 58 | 1017.3 |
| 20260502011515 | 41 | 14 | 3.0 | 7.0 | 0.00 | 0.00 | 0.00 | 58 | 1017.2 |
| 20260502010515 | 41 | 353 | 3.0 | 6.0 | 0.00 | 0.00 | 0.00 | 54 | 1017.1 |
| 20260502005515 | 41 | 331 | 3.0 | 4.0 | 0.00 | 0.00 | 0.00 | 56 | 1017.1 |
| 20260502004516 | 42 | 330 | 3.0 | 4.0 | 0.00 | 0.00 | 0.00 | 54 | 1017.0 |
| 20260502003516 | 42 | 347 | 4.0 | 5.0 | 0.00 | 0.00 | 0.00 | 52 | 1017.0 |
| 20260502002536 | 42 | 25 | 4.0 | 8.0 | 0.00 | 0.00 | 0.00 | 53 | 1016.9 |
| 20260502001516 | 42 | 347 | 3.0 | 5.0 | 0.00 | 0.00 | 0.00 | 56 | 1016.8 |
| 20260502000536 | 43 | 328 | 2.0 | 4.0 | 0.00 | 0.00 | 0.00 | 54 | 1016.7 |
| 20260501235537 | 43 | 352 | 2.0 | 4.0 | 0.00 | 0.00 | 0.00 | 55 | 1016.6 |
| 20260501234517 | 43 | 228 | 3.0 | 6.0 | 0.00 | 0.00 | 0.00 | 57 | 1016.5 |
| 20260501233517 | 43 | 351 | 3.0 | 5.0 | 0.00 | 0.00 | 0.00 | 51 | 1016.4 |
| 20260501232517 | 44 | 22 | 4.0 | 7.0 | 0.00 | 0.00 | 0.00 | 53 | 1016.3 |
| 20260501231537 | 44 | 257 | 2.0 | 5.0 | 0.00 | 0.00 | 0.00 | 53 | 1016.3 |
| 20260501230517 | 46 | 215 | 3.0 | 8.0 | 0.00 | 0.00 | 0.00 | 49 | 1016.2 |
| 20260501225557 | 46 | 264 | 6.0 | 9.0 | 0.00 | 0.00 | 0.00 | 49 | 1016.0 |
| 20260501224517 | 47 | 255 | 3.0 | 8.0 | 0.00 | 0.00 | 0.00 | 42 | 1016.0 |
| 20260501223518 | 47 | 223 | 4.0 | 8.0 | 0.00 | 0.00 | 0.00 | 41 | 1015.9 |
| 20260501222518 | 46 | 13 | 5.0 | 9.0 | 0.00 | 0.00 | 0.00 | 48 | 1016.0 |
| 20260501221518 | 46 | 348 | 4.0 | 7.0 | 0.00 | 0.00 | 0.00 | 48 | 1016.0 |
| 20260501220518 | 46 | 275 | 3.0 | 5.0 | 0.00 | 0.00 | 0.00 | 46 | 1015.9 |
| 20260501215518 | 45 | 304 | 3.0 | 5.0 | 0.00 | 0.00 | 0.00 | 47 | 1015.8 |
| 20260501214519 | 45 | 25 | 2.0 | 5.0 | 0.00 | 0.00 | 0.00 | 49 | 1015.8 |
| 20260501213519 | 45 | 176 | 3.0 | 5.0 | 0.00 | 0.00 | 0.00 | 51 | 1015.8 |
| 20260501212525 | 45 | 326 | 1.0 | 2.0 | 0.00 | 0.00 | 0.00 | 56 | 1015.8 |